Weather History for Albuquerque, NM

Change the Weather History Date:

Tuesday, April 1, 2014

  Actual Average Record
Temperature  
Mean Temperature 58 °F 52 °F  
Max Temperature 75 °F 65 °F 81 °F (2011)
Min Temperature 41 °F 39 °F 13 °F (1896)
Degree Days  
Heating Degree Days 7 13  
Month to date heating degree days 7 13  
Since 1 July heating degree days 3620 3840  
Cooling Degree Days 0 0  
Month to date cooling degree days 0 0  
Year to date cooling degree days 0 0  
Growing Degree Days 8 (Base 50)    
Moisture  
Dew Point 8 °F    
Average Humidity 14    
Maximum Humidity 21    
Minimum Humidity 7    
Precipitation  
Precipitation 0.00 in 0.02 in 1.90 in (1905)
Month to date precipitation 0.00 0.02  
Year to date precipitation 0.40 1.45  
Snow  
Snow 0.00 in - - ()
Month to date snowfall 0.0  
Since 1 July snowfall 6.6  
Snow Depth 0.00 in    
Sea Level Pressure  
Sea Level Pressure 29.74 in    
Wind  
Wind Speed 12 mph (South)    
Max Wind Speed 31 mph    
Max Gust Speed 40 mph    
Visibility 10 miles    
Events      
T = Trace of Precipitation, MM = Missing Value Source: NWS Daily Summary

Daily Weather History Graph

Daily Weather History Graph

Search for Another Location

Airport:

Trip Planner

Search our weather history database for the weather conditions in past years. The results will help you decide how hot, cold, wet, or windy it might be!

Date:

Astronomy

Apr. 01, 2014 Rise Set
Actual Time 6:53 AM MDT 7:27 PM MDT
Civil Twilight 6:27 AM MDT 7:53 PM MDT
Nautical Twilight 5:57 AM MDT 8:23 PM MDT
Astronomical Twilight 5:27 AM MDT 8:54 PM MDT
Moon 8:02 AM MDT (4/1) 9:47 PM MDT (4/1)
Length of Visible Light 13h 25m
Length of Day
12h 34m
Waxing Crescent, 5% of the Moon is Illuminated
Apr 1
Waxing Crescent
Apr 7
First Quarter
Apr 15
Full
Apr 22
Last Quarter
Apr 29
New

Hourly Weather History & Observations

Time (MDT) Temp. Windchill Dew Point Humidity Pressure Visibility Wind Dir Wind Speed Gust Speed Precip Events Conditions
12:52 AM 46.0 °F 41.0 °F 7.0 °F 20% 29.88 in 10.0 mi ESE 10.4 mph - N/A   Clear
1:52 AM 50.0 °F - 6.1 °F 17% 29.84 in 10.0 mi Variable 3.5 mph - N/A   Clear
2:52 AM 44.1 °F 39.5 °F 5.0 °F 20% 29.85 in 10.0 mi SE 8.1 mph - N/A   Clear
3:52 AM 42.1 °F 37.1 °F 5.0 °F 22% 29.83 in 10.0 mi ESE 8.1 mph - N/A   Clear
4:52 AM 43.0 °F 38.2 °F 5.0 °F 21% 29.83 in 10.0 mi ESE 8.1 mph - N/A   Clear
5:52 AM 44.1 °F 42.5 °F 6.1 °F 21% 29.82 in 10.0 mi East 3.5 mph - N/A   Clear
6:52 AM 44.1 °F 42.5 °F 5.0 °F 20% 29.82 in 10.0 mi ESE 3.5 mph - N/A   Clear
7:52 AM 46.0 °F 43.1 °F 8.1 °F 21% 29.84 in 10.0 mi SSE 5.8 mph - N/A   Partly Cloudy
8:52 AM 53.1 °F - 9.0 °F 17% 29.83 in 10.0 mi SE 5.8 mph - N/A   Partly Cloudy
9:52 AM 57.9 °F - 10.0 °F 15% 29.83 in 10.0 mi SSW 9.2 mph - N/A   Partly Cloudy
10:52 AM 61.0 °F - 12.0 °F 15% 29.81 in 10.0 mi SSW 10.4 mph 19.6 mph N/A   Partly Cloudy
11:52 AM 64.0 °F - 10.0 °F 12% 29.79 in 10.0 mi SSW 23.0 mph 29.9 mph N/A   Partly Cloudy
12:52 PM 66.9 °F - 10.0 °F 11% 29.73 in 10.0 mi South 21.9 mph 38.0 mph N/A   Partly Cloudy
1:52 PM 71.1 °F - 6.1 °F 8% 29.66 in 10.0 mi SSW 21.9 mph 35.7 mph N/A   Partly Cloudy
2:52 PM 72.0 °F - 7.0 °F 8% 29.65 in 10.0 mi SW 19.6 mph 31.1 mph N/A   Partly Cloudy
3:52 PM 73.0 °F - 6.1 °F 7% 29.61 in 10.0 mi South 20.7 mph 31.1 mph N/A   Partly Cloudy
4:52 PM 73.9 °F - 7.0 °F 8% 29.60 in 10.0 mi WSW 26.5 mph 36.8 mph N/A   Partly Cloudy
5:52 PM 73.0 °F - 7.0 °F 8% 29.60 in 10.0 mi West 25.3 mph 38.0 mph N/A   Partly Cloudy
6:52 PM 70.0 °F - 9.0 °F 9% 29.63 in 10.0 mi WSW 13.8 mph 28.8 mph N/A   Partly Cloudy
7:52 PM 66.0 °F - 8.1 °F 10% 29.66 in 10.0 mi SW 15.0 mph - N/A   Partly Cloudy
8:52 PM 63.0 °F - 9.0 °F 12% 29.67 in 10.0 mi WSW 13.8 mph - N/A   Clear
9:52 PM 60.1 °F - 9.0 °F 13% 29.68 in 10.0 mi WSW 9.2 mph - N/A   Clear
10:52 PM 57.0 °F - 10.0 °F 15% 29.68 in 10.0 mi WSW 8.1 mph - N/A   Clear
11:52 PM 55.9 °F - 9.0 °F 15% 29.67 in 10.0 mi South 3.5 mph - N/A   Clear